sat.trackr.live / text

‹ back to catalog

STARLINK-30565

NORAD 58034 · 2023-156G

PAYLOAD ACTIVE UNKNOWN

§ Identity

Operator
Country
US
Launch date
2023-10-09
Launch site
AFWTR
Launch vehicle
Mass (kg)
RCS (m²)

Purposes: comms

External: N2YO · Heavens-Above · Gunter

§ Orbital elements

Epoch: 2026-05-25T02:50:00.683808Z

Period
94.10 min
Inclination
53.1597°
Eccentricity
0.0001109
Mean motion
15.30211674 rev/d
Perigee alt
474.4 km
Apogee alt
475.9 km
Semi-major
6,853.3 km
B*
-7.3142e-5
RAAN
83.4740°
Arg perigee
83.6158°
Mean anomaly
276.4969°
Rev number
14,801

§ Raw data

STARLINK-305651 58034U 23156G   26145.11806347 -.00002525  00000+0 -73142-4 0  99912 58034  53.1597  83.4740 0001109  83.6158 276.4969 15.30211674148017

JSON: /api/v1/satellites/58034 · /tle

For live sub-satellite position, see the globe view (requires WebGL).

§ Visibility from observer

Set your observer location to see the next 7 days of passes ≥ 10°. The values pass through the URL so the page stays shareable.

No JS? Fill the form by hand. The geolocation button needs JavaScript.